CAPE
3581 3696 3833 3711 3851 4517 4317 4078 3805 2606 2670 1907 1950 1123 668 926 373 429 512 293 409 545 298 95 156 390 66 29 42 46 29 27 32 20 26 137 934 675 487 379 146 312 84
3060 3814 3886 4009 3961 3808 4364 4249 4189 3441 2714 2356 2032 1410 1112 850 777 660 459 226 198 133 101 646 306 93 1474 1490 258 847 289 281 19 530 190 45 392 590 832 1060 163 52 77
2811 3043 3697 3691 4136 3873 4406 4276 4181 3661 3144 1741 1717 1115 1202 597 401 496 867 888 770 576 513 914 730 959 1423 574 1105 454 72 325 226 83 75 103 33 148 263 275 505 223 215
1798 2101 3089 3737 3765 3893 4382 4290 4343 4014 3034 1692 1906 1458 1008 351 426 276 586 597 945 776 857 960 859 1021 1427 1365 971 1371 1052 506 295 86 97 90 95 84 251 175 125 41 96
2401 2431 2942 3741 3980 4128 4119 4437 4395 3657 2711 1965 1760 1415 887 460 265 75 503 571 965 913 783 925 1014 1054 555 594 607 996 1387 408 131 99 107 70 121 164 165 164 99 83 62
3370 3204 3519 4338 4131 4172 4404 4527 4369 3764 2785 2092 1564 1118 460 209 65 96 533 597 754 1009 1098 1257 1357 796 418 168 153 92 50 173 528 172 89 103 338 207 144 150 88 30 19
3969 4528 4299 4818 4753 4784 4624 4542 4130 3722 2411 1792 1311 801 458 176 256 192 70 247 652 720 866 1444 1223 545 412 667 470 164 119 53 11 167 325 399 422 425 505 408 318 93 8
4608 4476 4761 4835 5073 4932 4553 4347 3739 2676 1829 1703 1316 946 591 553 510 345 228 79 247 303 784 1371 1556 1502 1155 722 722 254 435 751 420 112 300 387 478 365 122 65 76 27 31
4439 4584 4673 4739 4768 4779 4271 3805 2849 2164 1815 1270 1055 1192 894 861 811 471 171 22 110 297 530 1286 1518 1323 284 130 69 222 590 632 174 4 14 1 0 0 1 1 8 23 26
3906 3859 4359 4452 4606 4203 3782 3163 2827 2245 1552 1594 1255 1065 1026 776 471 233 11 330 729 579 627 1408 279 213 204 112 63 158 290 338 182 194 160 16 14 19 6 31 50 59 50
2911 3007 3634 3816 4184 4108 3652 2891 2463 2136 1409 1144 1078 1017 927 913 773 241 69 175 160 165 169 1019 991 372 65 15 4 32 187 58 183 1 4 50 185 195 30 148 404 87 29
3708 3664 3754 4074 3356 3115 3084 2569 2033 1496 1301 1248 1058 836 1168 1413 539 252 41 104 157 207 430 931 502 209 138 60 0 0 0 0 0 0 25 37 71 9 7 18 146 82 13
3959 4254 3999 3467 2721 2650 2413 2055 1391 1239 1255 1014 740 1384 1439 883 1304 183 159 73 42 72 317 162 178 151 57 15 0 0 0 0 0 48 82 10 0 2 89 40 72 148 128
3739 2958 2683 2563 2098 1721 1652 1500 1205 1196 893 1020 1069 1198 1079 874 139 342 75 12 7 10 20 98 60 22 3 0 0 0 0 1 24 9 0 0 0 0 0 0 0 0 0
2265 1761 2159 1951 1446 1015 937 855 853 726 801 1073 840 1107 735 615 555 188 62 99 259 149 229 317 77 100 128 108 25 28 21 81 38 8 0 0 0 0 0 0 0 0 1
2120 1764 1574 1412 991 801 671 556 606 346 497 382 332 312 154 29 34 28 64 117 101 141 137 288 217 187 316 200 336 173 209 39 18 5 0 0 0 0 0 0 0 0 8
2157 2148 1569 1393 1125 1127 953 811 427 135 207 300 6 0 1 16 3 48 83 70 47 34 25 57 56 92 181 322 246 28 20 8 3 0 0 0 0 0 0 0 0 0 0
1542 697 1012 990 785 615 526 380 316 160 31 1 0 0 10 0 1 14 23 40 2 0 0 0 26 75 39 34 8 2 0 1 0 0 0 0 0 0 0 0 0 0 0
1024 874 826 664 468 189 295 401 153 97 111 38 0 0 0 5 0 2 0 0 4 28 19 4 1 2 2 1 0 0 0 0 0 0 0 0 0 0 0 0 0 0 0
801 350 184 307 124 94 215 154 150 139 221 136 3 0 0 0 0 0 0 0 0 0 1 0 0 0 0 0 0 0 0 0 0 0 0 0 0 0 0 0 0 0 0
357 149 1 179 106 280 313 264 180 181 192 261 113 21 5 0 29 41 20 18 5 3 2 0 0 0 0 0 0 0 0 0 0 0 0 0 0 0 0 0 0 0 0
194 206 71 211 134 173 121 116 145 143 127 143 85 42 34 18 92 20 35 19 17 11 2 0 0 0 0 0 0 0 0 0 0 0 0 0 0 0 0 0 0 0 0
205 113 139 111 200 69 143 193 177 161 165 154 65 19 35 63 43 101 44 23 16 16 5 0 0 0 0 0 0 0 0 0 0 0 0 0 0 0 0 0 0 0 0
148 118 152 409 287 310 146 133 301 67 102 87 20 68 15 15 30 88 39 40 22 12 11 4 0 0 0 0 0 0 0 0 0 0 0 0 0 0 0 0 0 0 0
138 178 136 211 116 138 143 120 120 84 50 28 16 34 39 31 19 44 39 25 21 5 21 6 0 0 0 0 0 0 0 0 0 0 0 0 0 0 0 0 0 0 0
62 42 49 82 92 76 71 73 80 81 50 43 49 49 41 25 17 33 35 16 23 33 19 18 9 0 0 0 0 0 0 0 0 0 0 0 0 0 0 0 0 0 0
CIN
-3 0 0 -2 0 0 0 0 0 -10 -16 -7 -20 -57 -97 -64 -93 -38 -22 -18 -23 0 -15 -13 -5 0 -9 -26 -13 -28 0 0 -45 0 0 -20 -2 -3 -3 -80 -41 -53 -1
-45 -3 -9 -2 -1 -4 0 0 0 -3 -4 -16 -25 -40 -45 -42 -17 -33 -3 -17 -29 -24 -38 0 0 -9 0 -1 -1 -16 -18 0 0 -1 -8 -2 -28 -3 -1 0 -12 0 -1
-62 -50 -21 -21 -6 -12 0 0 0 -5 -3 -69 -40 -93 -48 -76 -143 -83 -61 -2 0 0 0 0 0 0 0 -4 0 -1 0 -3 -18 0 -10 -48 -9 -31 -37 -59 -42 -47 -23
-78 -75 -52 -44 -35 -12 0 0 0 -1 -26 -91 -60 -81 -99 -192 -186 -162 -155 -26 0 0 0 0 0 0 0 0 0 0 0 -6 -10 0 0 -1 -9 -61 -58 -2 -16 -62 -11
-51 -54 -60 -39 -15 -1 0 0 0 -3 -42 -85 -99 -108 -137 -224 -268 -357 -152 -26 -1 0 0 0 0 -1 -18 -5 -1 -2 0 -4 0 0 0 -3 -5 -7 -2 0 -3 -5 -25
-20 -36 -29 -3 -12 -5 0 0 0 -3 -32 -65 -129 -186 -306 -30 -33 -255 -150 -10 -3 0 0 0 0 -23 -56 -33 -36 -45 -129 -30 -2 -44 0 0 -3 -1 0 -1 0 0 0
-28 -2 -2 -1 -2 -1 0 0 -1 -6 -64 -129 -112 -54 -228 -58 -53 -21 -25 -46 -2 -2 -4 0 0 0 -14 -8 -10 -17 -28 -41 -17 -9 -1 0 -6 0 0 0 0 0 0
-35 -34 -1 0 0 0 -5 -5 -29 -64 -116 -106 -102 -67 -80 -50 -35 -23 -3 -71 -10 -21 -14 0 0 -3 -18 -22 -16 -25 -8 0 -16 -12 0 0 0 0 -6 0 0 0 -17
-57 -37 -8 -5 -3 0 -14 -27 -75 -111 -132 -162 -149 -96 -73 -31 -6 -9 -4 -19 -69 -29 -21 -2 0 -7 -46 -39 -70 -28 -1 0 -5 -1 -17 -11 0 0 -5 -2 0 0 0
-82 -75 -30 -20 -9 -22 -37 -62 -56 -81 -133 -90 -90 -88 -64 -33 -16 -10 -110 -30 -5 -18 -29 -4 -29 -74 -63 -40 -54 -44 0 0 -16 0 -7 -19 -27 -61 -23 -74 -11 0 0
-139 -116 -56 -35 -21 -19 -32 -60 -67 -70 -134 -145 -92 -75 -64 -12 -5 -40 -62 -45 -57 -54 -24 0 -22 -44 -75 -64 -51 -40 -2 -35 -7 -1 -7 -5 -5 0 0 -10 -14 -1 0
-42 -29 -23 -9 -26 -48 -51 -62 -79 -115 -95 -78 -63 -58 -8 0 -3 -20 -25 -74 -35 -11 -3 -4 -21 -60 -52 -25 0 0 0 0 0 0 -4 -7 -8 0 0 -1 -19 -11 -2
-12 -7 -13 -36 -79 -83 -77 -82 -135 -108 -69 -64 -62 -3 0 -15 0 -6 0 -21 -67 -52 -17 -10 -49 -29 -34 -22 0 0 0 0 0 -5 -13 0 0 0 -14 -7 -94 -37 -53
-9 -70 -89 -83 -112 -138 -122 -107 -115 -61 -59 -7 -2 -2 -4 -2 -14 -7 -7 -5 -62 -2 -141 -43 -34 -34 -24 0 0 0 0 -1 -12 -1 0 0 0 0 0 0 0 0 0
-125 -177 -112 -116 -151 -206 -195 -157 -110 -83 -31 0 -1 0 0 0 -2 -20 -65 -67 -39 -54 -24 0 -38 -36 -17 -29 -51 -49 -11 -14 0 0 0 0 0 0 0 0 0 0 0
-114 -130 -125 -125 -165 -164 -147 -127 -57 -92 -19 -9 -16 -12 -21 -62 -10 -38 -59 -47 -23 -21 -27 -2 0 -2 -2 -16 -18 -28 -21 -1 0 0 0 0 0 0 0 0 0 0 0
-9 -6 -34 -22 -47 -20 -7 -11 -47 -100 -65 -35 -1 0 -61 0 -105 -43 -19 -20 -20 -7 -3 -10 0 -1 -1 -7 -3 0 0 0 -9 0 0 0 0 0 0 0 0 0 0
-36 -127 -21 -8 -15 -27 -20 -20 -23 -61 -111 -42 0 0 -17 -1 -5 -39 -25 -14 -7 0 0 0 -1 -3 0 0 0 0 0 0 0 0 0 0 0 0 0 0 0 0 0
-26 -13 0 -3 -4 -49 -16 -3 -9 -20 -31 -104 0 0 0 -37 0 -13 0 0 0 0 0 0 0 0 0 0 0 0 0 0 0 0 0 0 0 0 0 0 0 0 0
-6 -28 -34 -7 -41 -20 -9 -11 -4 -16 -49 -48 -35 0 0 0 0 0 0 0 0 0 -1 0 0 0 0 0 0 0 0 0 0 0 0 0 0 0 0 0 0 0 0
-2 -28 -59 -2 -8 0 0 0 -10 -17 -18 -4 -3 -18 -60 0 -3 -5 -6 0 0 0 -1 0 0 0 0 0 0 0 0 0 0 0 0 0 0 0 0 0 0 0 0
0 0 -15 -2 -12 -5 -39 -47 0 0 -1 -1 -61 -25 -12 -35 -3 -3 -5 -1 0 0 0 0 0 0 0 0 0 0 0 0 0 0 0 0 0 0 0 0 0 0 0
-2 -37 -12 -8 -13 -6 -9 0 0 -1 0 -3 -57 -17 -25 -3 0 -17 -18 -1 -1 0 0 0 0 0 0 0 0 0 0 0 0 0 0 0 0 0 0 0 0 0 0
-12 -21 -10 -9 -42 0 -1 -1 -12 -4 -5 -14 -30 -17 -30 -18 0 -23 -8 -5 -1 0 0 0 0 0 0 0 0 0 0 0 0 0 0 0 0 0 0 0 0 0 0
-13 -3 -24 -15 0 -2 0 0 0 -3 -24 -29 -19 -13 -19 -15 -10 -7 -1 -3 -5 0 0 0 0 0 0 0 0 0 0 0 0 0 0 0 0 0 0 0 0 0 0
0 -6 0 0 0 0 0 0 0 -9 -17 -15 -4 -33 -27 -25 -3 -3 -32 -48 -7 0 0 0 0 0 0 0 0 0 0 0 0 0 0 0 0 0 0 0 0 0 0
Wind_Speed
8 8 8 9 13 14 14 20 22 23 28 26 35 40 41 46 39 30 27 28 28 27 23 nan 22 22 nan nan nan nan nan nan nan nan nan 27 30 27 28 36 34 39 nan
6 6 10 12 13 16 20 27 27 29 26 35 39 40 44 46 51 46 34 26 24 22 29 27 26 nan 28 26 26 29 32 32 nan 24 29 nan 29 29 32 31 38 nan nan
10 11 12 14 17 22 30 28 30 34 38 39 48 50 52 55 58 48 43 33 27 22 24 30 30 30 30 29 31 29 nan 33 36 nan nan 32 nan 31 35 41 42 44 48
23 20 20 22 25 26 24 30 37 41 43 47 52 53 55 55 56 43 43 27 25 28 29 30 32 34 35 31 24 26 26 28 30 nan nan nan nan nan 51 47 44 nan nan
24 26 26 25 25 26 29 35 40 44 45 51 57 60 60 58 46 nan 44 32 45 25 28 30 34 36 37 30 28 26 25 28 30 nan 33 nan 45 52 44 43 nan nan nan
26 27 29 25 26 29 32 35 39 45 48 52 59 61 63 51 nan nan 52 41 41 30 27 32 36 39 38 30 29 nan nan 27 26 32 nan 39 41 43 44 47 nan nan nan
22 25 28 31 24 29 35 36 42 48 52 49 52 53 56 52 43 47 nan 43 43 41 31 32 28 27 29 19 21 24 30 nan nan 38 39 41 42 42 44 43 41 nan nan
22 22 26 30 31 33 36 39 46 48 53 53 57 56 51 52 52 44 46 nan 44 37 25 30 33 28 27 31 31 25 26 36 42 44 41 43 44 46 47 nan nan nan nan
20 21 25 30 34 36 38 41 47 52 53 57 56 55 55 52 54 53 46 nan 36 25 22 39 32 24 22 38 nan 33 33 37 38 nan nan nan nan nan nan nan nan nan nan
25 28 29 31 34 38 41 45 49 57 57 55 53 61 60 54 49 48 nan 37 37 32 35 31 31 32 42 36 nan 35 34 36 40 46 50 nan nan nan nan nan nan nan nan
36 35 36 37 39 40 44 49 56 61 61 63 65 57 53 48 44 45 nan 41 37 37 36 35 41 52 nan nan nan nan 36 nan 47 nan nan nan 44 39 nan 38 37 nan nan
46 41 42 44 44 47 50 53 56 63 65 68 61 54 50 44 46 47 nan 44 41 42 36 41 39 45 42 nan nan nan nan nan nan nan nan nan nan nan nan nan 27 nan nan
49 46 45 51 51 51 55 56 56 64 65 64 55 48 48 47 46 51 51 nan nan nan 35 41 43 40 nan nan nan nan nan nan nan nan nan nan nan nan nan nan nan 23 24
56 55 50 54 52 56 58 60 62 57 58 52 47 47 49 48 51 47 nan nan nan nan nan nan nan nan nan nan nan nan nan nan nan nan nan nan nan nan nan nan nan nan nan
53 52 55 54 59 59 60 57 62 59 53 52 50 50 53 54 50 45 nan nan 40 42 33 38 nan 49 48 46 nan nan nan nan nan nan nan nan nan nan nan nan nan nan nan
53 49 57 62 60 61 63 64 61 62 56 57 55 54 56 nan nan nan nan 48 49 47 43 40 41 40 41 39 40 40 40 nan nan nan nan nan nan nan nan nan nan nan nan
50 59 60 64 64 64 62 58 57 61 62 56 nan nan nan nan nan nan nan nan nan nan nan nan nan nan 33 35 35 nan nan nan nan nan nan nan nan nan nan nan nan nan nan
59 57 57 59 58 59 61 59 59 56 nan nan nan nan nan nan nan nan nan nan nan nan nan nan nan nan nan nan nan nan nan nan nan nan nan nan nan nan nan nan nan nan nan
52 53 56 59 60 61 57 55 50 nan 51 nan nan nan nan nan nan nan nan nan nan nan nan nan nan nan nan nan nan nan nan nan nan nan nan nan nan nan nan nan nan nan nan
57 55 52 57 59 nan 54 49 46 47 56 51 nan nan nan nan nan nan nan nan nan nan nan nan nan nan nan nan nan nan nan nan nan nan nan nan nan nan nan nan nan nan nan
51 53 nan 53 54 47 47 46 47 46 45 47 43 nan nan nan nan nan nan nan nan nan nan nan nan nan nan nan nan nan nan nan nan nan nan nan nan nan nan nan nan nan nan
47 53 nan 48 46 46 45 45 43 42 40 41 nan nan nan nan nan nan nan nan nan nan nan nan nan nan nan nan nan nan nan nan nan nan nan nan nan nan nan nan nan nan nan
42 45 42 45 51 nan 42 37 39 38 35 39 nan nan nan nan nan 27 nan nan nan nan nan nan nan nan nan nan nan nan nan nan nan nan nan nan nan nan nan nan nan nan nan
44 42 47 43 43 34 37 35 36 nan 31 nan nan nan nan nan nan nan nan nan nan nan nan nan nan nan nan nan nan nan nan nan nan nan nan nan nan nan nan nan nan nan nan
43 42 37 38 33 31 32 26 29 nan nan nan nan nan nan nan nan nan nan nan nan nan nan nan nan nan nan nan nan nan nan nan nan nan nan nan nan nan nan nan nan nan nan
nan nan nan nan nan nan nan nan nan nan nan nan nan nan nan nan nan nan nan nan nan nan nan nan nan nan nan nan nan nan nan nan nan nan nan nan nan nan nan nan nan nan nan
Wind_Direction
344 322 338 348 349 349 6 1 352 343 334 348 338 334 326 322 311 298 293 276 293 297 286 nan 287 282 nan nan nan nan nan nan nan nan nan 289 279 283 281 287 285 287 nan
318 0 356 343 352 357 359 356 354 345 346 331 332 328 329 320 339 317 291 270 281 291 296 285 294 nan 297 296 286 273 274 275 nan 285 293 nan 298 294 290 291 295 nan nan
344 341 333 336 337 341 338 350 353 350 349 339 336 330 330 334 327 335 328 282 274 280 288 298 303 298 294 291 282 275 nan 277 277 nan nan 280 nan 288 285 283 286 289 295
335 337 329 333 339 337 344 355 349 344 343 340 341 338 339 338 340 346 342 319 290 275 289 296 306 305 308 295 292 293 284 284 294 nan nan nan nan nan 297 284 284 nan nan
325 329 333 332 341 346 345 346 345 343 336 335 333 333 336 337 335 nan 328 327 329 289 284 293 302 303 313 295 282 290 282 283 276 nan 282 nan 297 287 289 289 nan nan nan
317 325 329 330 342 348 346 344 342 338 333 334 336 331 331 325 nan nan 318 323 320 305 287 290 294 301 305 300 299 nan nan 287 280 279 nan 286 294 293 294 294 nan nan nan
308 320 324 323 323 331 329 330 332 330 326 327 330 328 328 323 320 324 nan 318 314 314 267 282 283 302 280 272 302 296 295 nan nan 298 296 295 299 297 293 299 309 nan nan
295 310 317 323 321 321 325 332 326 322 329 326 327 326 324 321 320 319 320 nan 312 303 289 285 284 281 269 282 287 284 292 290 295 297 301 304 305 298 296 nan nan nan nan
294 311 321 326 321 320 322 321 315 319 319 323 319 322 322 318 319 320 322 nan 317 315 294 302 277 274 268 304 nan 289 288 290 297 nan nan nan nan nan nan nan nan nan nan
288 300 312 314 313 315 313 312 312 313 316 322 323 320 321 321 318 320 nan 314 322 315 302 299 292 318 311 303 nan 286 291 294 291 290 299 nan nan nan nan nan nan nan nan
287 293 297 307 309 308 307 309 313 308 309 315 315 316 319 320 316 308 nan 313 315 313 309 305 286 318 nan nan nan nan 291 nan 284 nan nan nan 310 308 nan 304 314 nan nan
284 287 295 300 299 298 299 300 303 305 307 310 313 312 309 307 310 309 nan 319 302 316 306 307 313 305 299 nan nan nan nan nan nan nan nan nan nan nan nan nan 296 nan nan
278 280 288 283 286 292 295 299 301 303 304 306 308 309 307 307 307 302 307 nan nan nan 305 292 293 294 nan nan nan nan nan nan nan nan nan nan nan nan nan nan nan 316 319
273 278 282 291 289 293 294 294 297 299 301 299 299 301 304 307 310 310 nan nan nan nan nan nan nan nan nan nan nan nan nan nan nan nan nan nan nan nan nan nan nan nan nan
275 278 288 284 288 286 282 289 291 287 293 302 307 306 304 305 305 296 nan nan 309 304 300 299 nan 303 305 305 nan nan nan nan nan nan nan nan nan nan nan nan nan nan nan
276 285 288 289 286 285 288 285 269 285 291 290 288 298 300 nan nan nan nan 278 282 281 297 296 295 295 296 299 302 302 303 nan nan nan nan nan nan nan nan nan nan nan nan
279 281 285 291 288 288 288 289 290 288 287 286 nan nan nan nan nan nan nan nan nan nan nan nan nan nan 292 293 295 nan nan nan nan nan nan nan nan nan nan nan nan nan nan
274 274 285 284 285 288 292 295 297 297 nan nan nan nan nan nan nan nan nan nan nan nan nan nan nan nan nan nan nan nan nan nan nan nan nan nan nan nan nan nan nan nan nan
281 284 284 287 286 290 294 295 294 nan 300 nan nan nan nan nan nan nan nan nan nan nan nan nan nan nan nan nan nan nan nan nan nan nan nan nan nan nan nan nan nan nan nan
274 272 284 290 287 nan 293 293 295 297 296 299 nan nan nan nan nan nan nan nan nan nan nan nan nan nan nan nan nan nan nan nan nan nan nan nan nan nan nan nan nan nan nan
278 284 nan 286 289 290 290 296 299 302 299 303 308 nan nan nan nan nan nan nan nan nan nan nan nan nan nan nan nan nan nan nan nan nan nan nan nan nan nan nan nan nan nan
284 285 nan 286 288 289 293 292 294 295 296 301 nan nan nan nan nan nan nan nan nan nan nan nan nan nan nan nan nan nan nan nan nan nan nan nan nan nan nan nan nan nan nan
281 285 283 282 282 nan 290 294 297 294 295 287 nan nan nan nan nan 301 nan nan nan nan nan nan nan nan nan nan nan nan nan nan nan nan nan nan nan nan nan nan nan nan nan
275 275 272 274 276 288 288 290 281 nan 285 nan nan nan nan nan nan nan nan nan nan nan nan nan nan nan nan nan nan nan nan nan nan nan nan nan nan nan nan nan nan nan nan
275 276 277 281 283 288 289 288 292 nan nan nan nan nan nan nan nan nan nan nan nan nan nan nan nan nan nan nan nan nan nan nan nan nan nan nan nan nan nan nan nan nan nan
nan nan nan nan nan nan nan nan nan nan nan nan nan nan nan nan nan nan nan nan nan nan nan nan nan nan nan nan nan nan nan nan nan nan nan nan nan nan nan nan nan nan nan